| time (UTC) | temp C | wind direction | speed KPH | gust KPH | rain 1hr cm | rain 24hr cm | rain mn cm | humidity % | barometer mb |
| 20260505040341 | 17 | 108 | 8.0 | 19.3 | 0.18 | 0.36 | 0.36 | 62 | 1004.8 |
| 20260505040010 | 17 | 53 | 1.6 | 8.0 | 0.18 | 0.36 | 0.36 | 69 | 1004.0 |
| 20260505035909 | 17 | 77 | 0.0 | 8.0 | 0.18 | 0.36 | 0.36 | 69 | 1004.9 |
| 20260505035355 | 17 | 67 | 1.6 | 8.0 | 0.18 | 0.36 | 0.36 | 68 | 1004.9 |
| 20260505034900 | 18 | 336 | 0.0 | 1.6 | 0.18 | 0.36 | 0.36 | 71 | 1004.8 |
| 20260505034603 | 18 | 335 | 0.0 | 1.6 | 0.18 | 0.36 | 0.36 | 71 | 1004.1 |
| 20260505034345 | 18 | 335 | 0.0 | 0.0 | 0.18 | 0.36 | 0.36 | 70 | 1004.6 |
| 20260505033913 | 18 | 335 | 0.0 | 3.2 | 0.15 | 0.33 | 0.33 | 69 | 1004.2 |
| 20260505033357 | 19 | 335 | 0.0 | 3.2 | 0.15 | 0.33 | 0.33 | 68 | 1003.9 |
| 20260505033123 | 19 | 338 | 0.0 | 3.2 | 0.15 | 0.33 | 0.33 | 69 | 1003.1 |
| 20260505032843 | 19 | 338 | 0.0 | 11.3 | 0.15 | 0.33 | 0.33 | 68 | 1003.6 |
| 20260505032411 | 20 | 340 | 3.2 | 14.5 | 0.13 | 0.30 | 0.30 | 67 | 1003.3 |
| 20260505031855 | 21 | 14 | 4.8 | 19.3 | 0.13 | 0.30 | 0.30 | 64 | 1003.4 |
| 20260505031622 | 21 | 355 | 4.8 | 19.3 | 0.10 | 0.28 | 0.28 | 63 | 1002.6 |
| 20260505031341 | 22 | 355 | 3.2 | 19.3 | 0.05 | 0.23 | 0.23 | 63 | 1003.6 |
| 20260505030848 | 22 | 303 | 6.4 | 16.1 | 0.00 | 0.18 | 0.18 | 56 | 1003.1 |
| 20260505030352 | 22 | 340 | 4.8 | 9.7 | 0.00 | 0.18 | 0.18 | 62 | 1003.2 |
| 20260505030150 | 22 | 304 | 1.6 | 11.3 | 0.00 | 0.18 | 0.18 | 63 | 1002.6 |
| 20260505025840 | 22 | 261 | 1.6 | 8.0 | 0.00 | 0.18 | 0.18 | 63 | 1002.6 |
| 20260505025358 | 22 | 246 | 3.2 | 8.0 | 0.00 | 0.18 | 0.18 | 63 | 1002.4 |
| 20260505024906 | 22 | 245 | 1.6 | 4.8 | 0.00 | 0.18 | 0.18 | 62 | 1002.3 |
| 20260505024618 | 22 | 245 | 1.6 | 4.8 | 0.00 | 0.18 | 0.18 | 62 | 1001.4 |
| 20260505024351 | 22 | 245 | 1.6 | 4.8 | 0.00 | 0.18 | 0.18 | 62 | 1002.0 |
| 20260505023856 | 22 | 245 | 1.6 | 3.2 | 0.00 | 0.18 | 0.18 | 62 | 1002.1 |
| 20260505023342 | 23 | 245 | 0.0 | 3.2 | 0.00 | 0.18 | 0.18 | 61 | 1002.1 |
| 20260505023120 | 22 | 245 | 0.0 | 3.2 | 0.00 | 0.18 | 0.18 | 61 | 1001.4 |
| 20260505022848 | 23 | 245 | 0.0 | 1.6 | 0.00 | 0.18 | 0.18 | 61 | 1001.9 |
| 20260505022355 | 23 | 245 | 0.0 | 3.2 | 0.00 | 0.18 | 0.18 | 61 | 1001.9 |
| 20260505021840 | 23 | 245 | 1.6 | 4.8 | 0.00 | 0.18 | 0.18 | 60 | 1001.8 |
| 20260505021604 | 22 | 245 | 0.0 | 4.8 | 0.00 | 0.18 | 0.18 | 60 | 1001.0 |
| 20260505021347 | 23 | 245 | 1.6 | 4.8 | 0.00 | 0.18 | 0.18 | 60 | 1001.7 |
| 20260505020914 | 23 | 245 | 1.6 | 4.8 | 0.00 | 0.18 | 0.18 | 59 | 1001.6 |
| 20260505020359 | 23 | 245 | 0.0 | 4.8 | 0.00 | 0.18 | 0.18 | 58 | 1001.6 |
| 20260505020134 | 23 | 245 | 1.6 | 4.8 | 0.00 | 0.18 | 0.18 | 58 | 1000.8 |
| 20260505015847 | 23 | 245 | 1.6 | 4.8 | 0.00 | 0.18 | 0.18 | 57 | 1001.5 |
| 20260505015414 | 23 | 245 | 0.0 | 0.0 | 0.00 | 0.18 | 0.18 | 57 | 1001.5 |
| 20260505014900 | 23 | 245 | 0.0 | 0.0 | 0.00 | 0.18 | 0.18 | 56 | 1001.3 |
| 20260505014606 | 23 | 245 | 0.0 | 0.0 | 0.00 | 0.18 | 0.18 | 56 | 1000.6 |
| 20260505014346 | 23 | 245 | 0.0 | 0.0 | 0.00 | 0.18 | 0.18 | 56 | 1001.3 |
| 20260505013853 | 23 | 245 | 0.0 | 0.0 | 0.00 | 0.18 | 0.18 | 55 | 1001.3 |
| 20260505013358 | 24 | 245 | 0.0 | 0.0 | 0.00 | 0.18 | 0.18 | 55 | 1001.2 |
| 20260505013121 | 23 | 245 | 0.0 | 0.0 | 0.00 | 0.18 | 0.18 | 55 | 1000.4 |
| 20260505012843 | 24 | 245 | 0.0 | 0.0 | 0.00 | 0.18 | 0.18 | 54 | 1001.2 |
| 20260505012348 | 24 | 245 | 0.0 | 1.6 | 0.00 | 0.18 | 0.18 | 54 | 1001.2 |
| 20260505011852 | 24 | 245 | 0.0 | 3.2 | 0.00 | 0.18 | 0.18 | 53 | 1001.2 |
| 20260505011617 | 24 | 245 | 0.0 | 3.2 | 0.00 | 0.18 | 0.18 | 53 | 1000.5 |
| 20260505011358 | 25 | 245 | 0.0 | 3.2 | 0.00 | 0.18 | 0.18 | 53 | 1001.3 |
| 20260505010906 | 25 | 245 | 0.0 | 1.6 | 0.00 | 0.18 | 0.18 | 52 | 1001.2 |
| 20260505010351 | 25 | 245 | 0.0 | 3.2 | 0.00 | 0.18 | 0.18 | 52 | 1001.2 |
| 20260505010021 | 25 | 245 | 0.0 | 3.2 | 0.00 | 0.18 | 0.18 | 52 | 1000.4 |
| 20260505005919 | 25 | 245 | 0.0 | 3.2 | 0.00 | 0.18 | 0.18 | 52 | 1001.1 |
| 20260505005345 | 25 | 245 | 1.6 | 3.2 | 0.00 | 0.18 | 0.18 | 51 | 1001.0 |
| 20260505004851 | 25 | 245 | 0.0 | 1.6 | 0.00 | 0.18 | 0.18 | 51 | 1000.8 |
| 20260505004614 | 25 | 245 | 0.0 | 3.2 | 0.00 | 0.18 | 0.18 | 50 | 1000.2 |
| 20260505004357 | 25 | 245 | 0.0 | 3.2 | 0.00 | 0.18 | 0.18 | 51 | 1000.8 |
| 20260505003841 | 25 | 245 | 1.6 | 3.2 | 0.00 | 0.18 | 0.18 | 50 | 1000.7 |
| 20260505003347 | 25 | 245 | 1.6 | 6.4 | 0.00 | 0.18 | 0.18 | 50 | 1000.7 |
| 20260505003128 | 25 | 245 | 1.6 | 6.4 | 0.00 | 0.18 | 0.18 | 50 | 1000.1 |
| 20260505002852 | 25 | 245 | 1.6 | 6.4 | 0.00 | 0.18 | 0.18 | 49 | 1000.7 |
| 20260505002359 | 25 | 242 | 3.2 | 6.4 | 0.00 | 0.18 | 0.18 | 49 | 1000.8 |
| 20260505001905 | 25 | 242 | 1.6 | 4.8 | 0.00 | 0.18 | 0.18 | 49 | 1000.9 |
| 20260505001608 | 25 | 242 | 1.6 | 4.8 | 0.00 | 0.18 | 0.18 | 49 | 1000.2 |
| 20260505001411 | 26 | 242 | 0.0 | 4.8 | 0.00 | 0.18 | 0.18 | 49 | 1000.8 |
| 20260505000857 | 26 | 242 | 1.6 | 4.8 | 0.00 | 0.18 | 0.18 | 48 | 1000.7 |
| 20260505000344 | 26 | 242 | 0.0 | 8.0 | 0.00 | 0.18 | 0.18 | 47 | 1000.7 |
| 20260505000139 | 26 | 242 | 1.6 | 8.0 | 0.00 | 0.18 | 0.18 | 48 | 1000.1 |
| 20260504235852 | 26 | 242 | 1.6 | 8.0 | 0.00 | 0.18 | 0.18 | 47 | 1000.7 |
| 20260504235357 | 26 | 241 | 3.2 | 8.0 | 0.00 | 0.18 | 0.18 | 47 | 1000.7 |
| 20260504234843 | 26 | 246 | 3.2 | 8.0 | 0.00 | 0.18 | 0.18 | 47 | 1000.7 |
| 20260504234606 | 26 | 246 | 3.2 | 9.7 | 0.00 | 0.18 | 0.18 | 47 | 1000.1 |
| 20260504234348 | 26 | 246 | 3.2 | 9.7 | 0.00 | 0.18 | 0.18 | 47 | 1000.9 |
| 20260504233853 | 26 | 236 | 4.8 | 9.7 | 0.00 | 0.18 | 0.18 | 47 | 1000.9 |
| 20260504233358 | 26 | 259 | 3.2 | 11.3 | 0.00 | 0.18 | 0.18 | 48 | 1000.9 |
| 20260504233122 | 26 | 240 | 4.8 | 11.3 | 0.00 | 0.18 | 0.18 | 48 | 1000.3 |
| 20260504232844 | 26 | 242 | 3.2 | 8.0 | 0.00 | 0.18 | 0.18 | 48 | 1001.0 |
| 20260504232350 | 26 | 232 | 1.6 | 4.8 | 0.00 | 0.18 | 0.18 | 48 | 1001.2 |
| 20260504231855 | 26 | 225 | 1.6 | 12.9 | 0.00 | 0.18 | 0.18 | 49 | 1001.3 |
| 20260504231501 | 26 | 250 | 4.8 | 12.9 | 0.00 | 0.18 | 0.18 | 47 | 1000.7 |
| 20260504231400 | 26 | 279 | 3.2 | 12.9 | 0.00 | 0.18 | 0.18 | 48 | 1001.4 |
| 20260504230846 | 26 | 241 | 3.2 | 12.9 | 0.00 | 0.18 | 0.18 | 49 | 1001.3 |
| 20260504230352 | 26 | 257 | 4.8 | 12.9 | 0.00 | 0.18 | 0.18 | 48 | 1001.3 |
| 20260504230020 | 26 | 238 | 1.6 | 8.0 | 0.00 | 0.18 | 0.18 | 48 | 1000.6 |
| 20260504225919 | 26 | 238 | 3.2 | 8.0 | 0.00 | 0.18 | 0.18 | 47 | 1001.5 |
| 20260504225345 | 26 | 173 | 3.2 | 8.0 | 0.00 | 0.18 | 0.18 | 47 | 1001.4 |
| 20260504224851 | 26 | 222 | 3.2 | 8.0 | 0.00 | 0.18 | 0.18 | 47 | 1001.4 |
| 20260504224629 | 26 | 257 | 3.2 | 11.3 | 0.00 | 0.18 | 0.18 | 47 | 1000.8 |
| 20260504224357 | 26 | 254 | 1.6 | 11.3 | 0.00 | 0.18 | 0.18 | 46 | 1001.5 |
| 20260504223904 | 26 | 221 | 4.8 | 12.9 | 0.00 | 0.18 | 0.18 | 46 | 1001.6 |
| 20260504223349 | 26 | 250 | 4.8 | 12.9 | 0.00 | 0.18 | 0.18 | 46 | 1001.6 |
| 20260504223121 | 26 | 211 | 3.2 | 11.3 | 0.00 | 0.18 | 0.18 | 46 | 1000.9 |
| 20260504222854 | 26 | 288 | 3.2 | 11.3 | 0.00 | 0.18 | 0.18 | 47 | 1001.5 |
| 20260504222340 | 26 | 229 | 4.8 | 11.3 | 0.00 | 0.18 | 0.18 | 46 | 1001.6 |
| 20260504221907 | 26 | 243 | 4.8 | 14.5 | 0.00 | 0.18 | 0.18 | 46 | 1001.7 |
| 20260504221611 | 26 | 247 | 3.2 | 14.5 | 0.00 | 0.18 | 0.18 | 47 | 1001.0 |
| 20260504221352 | 26 | 28 | 4.8 | 14.5 | 0.00 | 0.18 | 0.18 | 46 | 1001.8 |
| 20260504220858 | 26 | 240 | 3.2 | 11.3 | 0.00 | 0.18 | 0.18 | 46 | 1001.7 |
| 20260504220345 | 26 | 247 | 1.6 | 11.3 | 0.00 | 0.18 | 0.18 | 47 | 1001.8 |
| 20260504220140 | 26 | 270 | 3.2 | 11.3 | 0.00 | 0.18 | 0.18 | 46 | 1001.1 |
| 20260504215853 | 26 | 248 | 6.4 | 11.3 | 0.00 | 0.18 | 0.18 | 46 | 1001.8 |
| 20260504215357 | 26 | 237 | 3.2 | 12.9 | 0.00 | 0.18 | 0.18 | 47 | 1001.8 |
| 20260504214842 | 26 | 238 | 3.2 | 14.5 | 0.00 | 0.18 | 0.18 | 46 | 1001.7 |
| 20260504214605 | 26 | 205 | 4.8 | 14.5 | 0.00 | 0.18 | 0.18 | 46 | 1001.0 |
| 20260504214408 | 26 | 232 | 4.8 | 17.7 | 0.00 | 0.18 | 0.18 | 45 | 1001.7 |
| 20260504213852 | 26 | 244 | 8.0 | 17.7 | 0.00 | 0.18 | 0.18 | 46 | 1001.6 |
| 20260504213358 | 26 | 250 | 4.8 | 16.1 | 0.00 | 0.18 | 0.18 | 45 | 1001.7 |
| 20260504213005 | 26 | 246 | 3.2 | 12.9 | 0.00 | 0.18 | 0.18 | 46 | 1001.1 |
| 20260504212903 | 26 | 147 | 6.4 | 12.9 | 0.00 | 0.18 | 0.18 | 45 | 1001.7 |
| 20260504212349 | 26 | 244 | 4.8 | 12.9 | 0.00 | 0.18 | 0.18 | 46 | 1001.7 |
| 20260504211854 | 26 | 252 | 4.8 | 12.9 | 0.00 | 0.18 | 0.18 | 47 | 1001.8 |
| 20260504211619 | 26 | 252 | 6.4 | 11.3 | 0.00 | 0.18 | 0.18 | 45 | 1001.3 |
| 20260504211341 | 26 | 223 | 4.8 | 17.7 | 0.00 | 0.18 | 0.18 | 45 | 1001.9 |
| 20260504210846 | 26 | 245 | 6.4 | 17.7 | 0.00 | 0.18 | 0.18 | 46 | 1001.9 |
| 20260504210351 | 26 | 307 | 1.6 | 14.5 | 0.00 | 0.18 | 0.18 | 48 | 1002.1 |
| 20260504210147 | 26 | 239 | 3.2 | 14.5 | 0.00 | 0.18 | 0.18 | 46 | 1001.4 |
| 20260504205859 | 26 | 231 | 1.6 | 14.5 | 0.00 | 0.18 | 0.18 | 48 | 1002.1 |
| 20260504205403 | 26 | 215 | 4.8 | 14.5 | 0.00 | 0.18 | 0.18 | 47 | 1001.9 |
| 20260504204848 | 26 | 219 | 4.8 | 12.9 | 0.00 | 0.18 | 0.18 | 47 | 1002.1 |
| 20260504204612 | 26 | 233 | 1.6 | 12.9 | 0.00 | 0.18 | 0.18 | 48 | 1001.4 |
| 20260504204416 | 26 | 214 | 4.8 | 16.1 | 0.00 | 0.18 | 0.18 | 46 | 1001.9 |
| 20260504203840 | 26 | 224 | 6.4 | 16.1 | 0.00 | 0.18 | 0.18 | 46 | 1001.9 |
| 20260504203346 | 26 | 240 | 3.2 | 11.3 | 0.00 | 0.18 | 0.18 | 47 | 1002.0 |
| 20260504203110 | 26 | 211 | 3.2 | 9.7 | 0.00 | 0.18 | 0.18 | 48 | 1001.3 |
| 20260504202851 | 26 | 186 | 1.6 | 11.3 | 0.00 | 0.18 | 0.18 | 47 | 1002.0 |
| 20260504202358 | 26 | 223 | 3.2 | 12.9 | 0.00 | 0.18 | 0.18 | 47 | 1002.1 |
| 20260504201842 | 26 | 236 | 3.2 | 14.5 | 0.00 | 0.18 | 0.18 | 47 | 1002.2 |
| 20260504201611 | 26 | 238 | 3.2 | 14.5 | 0.00 | 0.18 | 0.18 | 48 | 1001.6 |
| 20260504201348 | 26 | 243 | 4.8 | 14.5 | 0.00 | 0.18 | 0.18 | 47 | 1002.4 |
| 20260504200915 | 26 | 228 | 6.4 | 14.5 | 0.00 | 0.18 | 0.18 | 46 | 1002.5 |
| 20260504200359 | 26 | 241 | 4.8 | 14.5 | 0.00 | 0.18 | 0.18 | 47 | 1002.5 |
| 20260504200015 | 26 | 250 | 1.6 | 14.5 | 0.00 | 0.18 | 0.18 | 48 | 1001.9 |
| 20260504195908 | 26 | 248 | 4.8 | 14.5 | 0.00 | 0.18 | 0.18 | 47 | 1002.6 |
| 20260504195352 | 26 | 232 | 3.2 | 14.5 | 0.00 | 0.18 | 0.18 | 48 | 1002.6 |
| 20260504194858 | 26 | 192 | 4.8 | 17.7 | 0.00 | 0.18 | 0.18 | 46 | 1002.7 |
| 20260504194624 | 26 | 243 | 4.8 | 17.7 | 0.00 | 0.18 | 0.18 | 46 | 1002.1 |
| 20260504194343 | 26 | 188 | 6.4 | 17.7 | 0.00 | 0.18 | 0.18 | 47 | 1002.7 |
| 20260504193909 | 26 | 238 | 4.8 | 20.9 | 0.00 | 0.18 | 0.18 | 47 | 1002.5 |
| 20260504193414 | 26 | 223 | 6.4 | 20.9 | 0.00 | 0.18 | 0.18 | 46 | 1002.6 |
| 20260504193119 | 25 | 237 | 1.6 | 9.7 | 0.00 | 0.18 | 0.18 | 50 | 1002.0 |
| 20260504192921 | 26 | 236 | 3.2 | 16.1 | 0.00 | 0.18 | 0.18 | 48 | 1002.7 |
| 20260504192345 | 25 | 240 | 3.2 | 16.1 | 0.00 | 0.18 | 0.18 | 49 | 1002.7 |
| 20260504191912 | 25 | 243 | 8.0 | 16.1 | 0.00 | 0.18 | 0.18 | 47 | 1002.9 |
| 20260504191631 | 25 | 207 | 3.2 | 16.1 | 0.00 | 0.18 | 0.18 | 48 | 1002.2 |
| 20260504191357 | 25 | 238 | 4.8 | 16.1 | 0.00 | 0.18 | 0.18 | 47 | 1002.8 |
| 20260504190842 | 26 | 232 | 8.0 | 19.3 | 0.00 | 0.18 | 0.18 | 47 | 1002.9 |
| 20260504190347 | 26 | 244 | 4.8 | 19.3 | 0.00 | 0.18 | 0.18 | 49 | 1002.7 |
| 20260504190143 | 25 | 257 | 3.2 | 14.5 | 0.00 | 0.18 | 0.18 | 49 | 1002.2 |
| 20260504185856 | 25 | 195 | 3.2 | 14.5 | 0.00 | 0.18 | 0.18 | 49 | 1002.8 |
| 20260504185341 | 25 | 242 | 3.2 | 12.9 | 0.00 | 0.18 | 0.18 | 49 | 1002.8 |
| 20260504184847 | 25 | 236 | 4.8 | 16.1 | 0.00 | 0.18 | 0.18 | 48 | 1002.8 |
| 20260504184610 | 25 | 252 | 3.2 | 16.1 | 0.00 | 0.18 | 0.18 | 48 | 1002.1 |
| 20260504184352 | 25 | 314 | 4.8 | 16.1 | 0.00 | 0.18 | 0.18 | 48 | 1002.7 |
| 20260504183919 | 25 | 236 | 4.8 | 12.9 | 0.00 | 0.18 | 0.18 | 49 | 1002.7 |
| 20260504183343 | 25 | 150 | 6.4 | 20.9 | 0.00 | 0.18 | 0.18 | 48 | 1002.7 |
| 20260504183108 | 25 | 239 | 4.8 | 20.9 | 0.00 | 0.18 | 0.18 | 51 | 1002.1 |
| 20260504182848 | 25 | 247 | 6.4 | 20.9 | 0.00 | 0.18 | 0.18 | 48 | 1002.5 |
| 20260504182353 | 25 | 259 | 4.8 | 14.5 | 0.00 | 0.18 | 0.18 | 49 | 1002.6 |
| 20260504181858 | 25 | 227 | 3.2 | 17.7 | 0.00 | 0.18 | 0.18 | 48 | 1002.8 |
| 20260504181622 | 25 | 246 | 4.8 | 17.7 | 0.00 | 0.18 | 0.18 | 49 | 1002.4 |
| 20260504181343 | 25 | 238 | 8.0 | 19.3 | 0.00 | 0.18 | 0.18 | 47 | 1003.1 |
| 20260504180850 | 25 | 200 | 4.8 | 17.7 | 0.00 | 0.18 | 0.18 | 47 | 1003.1 |
| 20260504180356 | 25 | 222 | 6.4 | 17.7 | 0.00 | 0.18 | 0.18 | 47 | 1003.2 |
| 20260504180005 | 25 | 246 | 6.4 | 20.9 | 0.00 | 0.18 | 0.18 | 47 | 1002.6 |
| 20260504175904 | 25 | 252 | 6.4 | 20.9 | 0.00 | 0.18 | 0.18 | 48 | 1003.2 |
| 20260504175410 | 25 | 223 | 9.7 | 20.9 | 0.00 | 0.18 | 0.18 | 46 | 1003.2 |
| 20260504174854 | 25 | 251 | 3.2 | 19.3 | 0.00 | 0.18 | 0.18 | 48 | 1003.2 |
| 20260504174619 | 25 | 234 | 4.8 | 19.3 | 0.00 | 0.18 | 0.18 | 49 | 1002.7 |
| 20260504174359 | 25 | 248 | 4.8 | 17.7 | 0.00 | 0.18 | 0.18 | 49 | 1003.3 |
| 20260504173847 | 25 | 253 | 4.8 | 17.7 | 0.00 | 0.18 | 0.18 | 49 | 1003.4 |
| 20260504173352 | 25 | 246 | 4.8 | 12.9 | 0.00 | 0.18 | 0.18 | 48 | 1003.3 |
| 20260504173116 | 25 | 244 | 4.8 | 12.9 | 0.00 | 0.18 | 0.18 | 48 | 1002.7 |
| 20260504172857 | 25 | 273 | 6.4 | 12.9 | 0.00 | 0.18 | 0.18 | 48 | 1003.4 |
| 20260504172343 | 25 | 239 | 4.8 | 12.9 | 0.00 | 0.18 | 0.18 | 50 | 1003.4 |
| 20260504171910 | 25 | 249 | 3.2 | 16.1 | 0.00 | 0.18 | 0.18 | 50 | 1003.5 |
| 20260504171613 | 24 | 198 | 3.2 | 16.1 | 0.00 | 0.18 | 0.18 | 49 | 1003.0 |
| 20260504171356 | 25 | 239 | 3.2 | 14.5 | 0.00 | 0.18 | 0.18 | 49 | 1003.6 |
| 20260504170840 | 25 | 252 | 4.8 | 19.3 | 0.00 | 0.18 | 0.18 | 50 | 1003.7 |
| 20260504170346 | 25 | 225 | 6.4 | 17.7 | 0.00 | 0.18 | 0.18 | 48 | 1003.7 |
| 20260504170145 | 24 | 229 | 3.2 | 17.7 | 0.00 | 0.18 | 0.18 | 50 | 1003.2 |
| 20260504160421 | 23 | 244 | 4.8 | 16.1 | 0.00 | 0.18 | 0.18 | 52 | 1004.2 |
| 20260504160136 | 23 | 242 | 4.8 | 16.1 | 0.00 | 0.18 | 0.18 | 52 | 1003.6 |
| 20260504150846 | 21 | 246 | 3.2 | 11.3 | 0.00 | 0.18 | 0.18 | 60 | 1004.2 |
| 20260504150351 | 20 | 254 | 4.8 | 11.3 | 0.00 | 0.18 | 0.18 | 61 | 1004.3 |
| 20260504140855 | 17 | 229 | 4.8 | 11.3 | 0.00 | 0.18 | 0.18 | 71 | 1004.7 |
| 20260504140341 | 17 | 221 | 4.8 | 9.7 | 0.00 | 0.18 | 0.18 | 72 | 1004.7 |
| 20260504140137 | 17 | 244 | 1.6 | 11.3 | 0.00 | 0.18 | 0.18 | 73 | 1004.3 |
| 20260504130356 | 16 | 209 | 0.0 | 3.2 | 0.00 | 0.18 | 0.18 | 77 | 1004.9 |
| 20260504130151 | 16 | 209 | 0.0 | 3.2 | 0.00 | 0.18 | 0.18 | 77 | 1004.4 |
| 20260504110400 | 13 | 253 | 4.8 | 12.9 | 0.00 | 0.18 | 0.18 | 87 | 1003.6 |
| 20260504100351 | 12 | 66 | 0.0 | 1.6 | 0.00 | 0.18 | 0.18 | 87 | 1005.8 |
| 20260504100146 | 12 | 66 | 0.0 | 1.6 | 0.00 | 0.18 | 0.18 | 87 | 1005.5 |
| 20260504090138 | 12 | 159 | 0.0 | 3.2 | 0.03 | 0.18 | 0.18 | 87 | 1006.3 |
| 20260504081855 | 13 | 153 | 0.0 | 0.0 | 0.00 | 0.15 | 0.15 | 87 | 1007.1 |
| 20260504081618 | 12 | 153 | 0.0 | 0.0 | 0.03 | 0.15 | 0.15 | 87 | 1006.9 |
| 20260504081341 | 13 | 153 | 0.0 | 0.0 | 0.03 | 0.15 | 0.15 | 87 | 1007.3 |
| 20260504080846 | 13 | 153 | 0.0 | 1.6 | 0.03 | 0.15 | 0.15 | 87 | 1007.4 |
| 20260504080351 | 13 | 153 | 0.0 | 4.8 | 0.03 | 0.15 | 0.15 | 87 | 1007.5 |
| 20260504080150 | 13 | 153 | 0.0 | 4.8 | 0.03 | 0.15 | 0.15 | 87 | 1007.0 |
| 20260504070347 | 13 | 108 | 0.0 | 1.6 | 0.00 | 0.13 | 0.13 | 85 | 1007.8 |
| 20260504070144 | 13 | 108 | 0.0 | 1.6 | 0.00 | 0.13 | 0.13 | 85 | 1007.5 |
| 20260504060135 | 13 | 108 | 0.0 | 1.6 | 0.13 | 0.13 | 0.13 | 81 | 1008.4 |
| 20260504050349 | 14 | 360 | 1.6 | 3.2 | 0.00 | 0.00 | 0.00 | 73 | 1008.5 |
| 20260504050144 | 13 | 360 | 0.0 | 1.6 | 0.00 | 0.00 | 0.00 | 73 | 1008.3 |
| 20260504045854 | 14 | 360 | 0.0 | 0.0 | 0.00 | 0.00 | 0.00 | 72 | 1008.8 |
| 20260504045341 | 14 | 360 | 0.0 | 0.0 | 0.00 | 0.00 | 0.00 | 73 | 1008.8 |
| 20260504044848 | 14 | 360 | 0.0 | 1.6 | 0.00 | 0.00 | 0.00 | 72 | 1008.6 |
| 20260504044613 | 14 | 360 | 0.0 | 1.6 | 0.00 | 0.00 | 0.00 | 73 | 1008.4 |
| 20260504044355 | 14 | 360 | 0.0 | 1.6 | 0.00 | 0.00 | 0.00 | 72 | 1008.5 |
| 20260504043841 | 14 | 360 | 0.0 | 0.0 | 0.00 | 0.00 | 0.00 | 71 | 1008.8 |
| 20260504043347 | 14 | 360 | 0.0 | 0.0 | 0.00 | 0.00 | 0.00 | 71 | 1008.9 |
| 20260504043116 | 14 | 360 | 0.0 | 0.0 | 0.00 | 0.00 | 0.00 | 71 | 1008.7 |
| 20260504042852 | 14 | 360 | 0.0 | 0.0 | 0.00 | 0.00 | 0.00 | 71 | 1008.9 |
| 20260504042358 | 15 | 360 | 0.0 | 1.6 | 0.00 | 0.00 | 0.00 | 71 | 1008.6 |
| 20260504041843 | 15 | 360 | 0.0 | 4.8 | 0.00 | 0.00 | 0.00 | 71 | 1008.5 |
| 20260504041606 | 14 | 360 | 0.0 | 4.8 | 0.00 | 0.00 | 0.00 | 71 | 1008.2 |
| 20260504041348 | 15 | 360 | 1.6 | 4.8 | 0.00 | 0.00 | 0.00 | 71 | 1008.5 |
| 20260504040855 | 15 | 355 | 0.0 | 0.0 | 0.00 | 0.00 | 0.00 | 69 | 1009.0 |